Yiewsley, United Kingdom

5:20 PM BST on April 30, 2017 (GMT +0100)
Yiewsley

Weather History for 03772 - October, 2012

Change the Weather History Date:

Wednesday, October 3, 2012

  Actual Average Record
Temperature  
Mean Temperature 54 °F -  
Max Temperature 59 °F 57 °F - ()
Min Temperature 50 °F 45 °F - ()
Degree Days  
Heating Degree Days 10    
Growing Degree Days 4 (Base 50)    
Moisture  
Dew Point 47 °F    
Average Humidity 78    
Maximum Humidity 94    
Minimum Humidity 49    
Precipitation  
Precipitation 0.16 in - - ()
Sea Level Pressure  
Sea Level Pressure 29.69 in    
Wind  
Wind Speed 11 mph ()    
Max Wind Speed 18 mph    
Max Gust Speed 22 mph    
Visibility 8.1 miles    
Events Rain    
T = Trace of Precipitation, MM = Missing Value Source: Averaged Metar Reports

Daily Weather History Graph

Daily Weather History Graph

Search for Another Location

Airport or City:

Trip Planner

Search our weather history database for the weather conditions in past years. The results will help you decide how hot, cold, wet, or windy it might be!

Date:

Astronomy

Oct. 03, 2012 Rise Set
Actual Time 7:06 AM BST 6:34 PM BST
Civil Twilight 6:32 AM BST 7:07 PM BST
Nautical Twilight 5:54 AM BST 7:46 PM BST
Astronomical Twilight 5:14 AM BST 8:25 PM BST
Moon 7:47 PM BST (10/3) 10:43 AM BST (10/3)
Length of Visible Light 12h 34m
Length of Day
11h 28m
Waning Gibbous, 90% of the Moon is Illuminated
Oct 3
Waning Gibbous
Oct 8
Last Quarter
Oct 15
New
Oct 22
First Quarter
Oct 29
Full

Hourly Weather History & Observations

Time (BST) Temp. Dew Point Humidity Pressure Visibility Wind Dir Wind Speed Gust Speed Precip Events Conditions
12:20 AM 57.2 °F 53.6 °F 88% 29.68 in 6.2 mi SW 15.0 mph - N/A   Scattered Clouds
12:50 AM 57 °F 53 °F 80% 29.68 in 14 mi SSW 17.3 mph - - Rain Rain
12:50 AM 57.2 °F 51.8 °F 82% 29.68 in 6.2 mi SW 13.8 mph - N/A   Partly Cloudy
1:20 AM 55.4 °F 51.8 °F 88% 29.68 in 6.2 mi SW 17.3 mph - N/A Rain Light Rain
1:50 AM 55.4 °F 51.8 °F 88% 29.68 in 6.2 mi SW 11.5 mph - N/A   Unknown
2:20 AM 55.4 °F 51.8 °F 88% 29.68 in 6.2 mi SW 9.2 mph - N/A   Unknown
2:50 AM 55.4 °F 51.8 °F 88% 29.68 in - SW 9.2 mph - N/A   Clear
3:20 AM 53.6 °F 51.8 °F 94% 29.68 in - SW 9.2 mph - N/A   Clear
3:50 AM 54 °F 51 °F 88% 29.68 in 17 mi SSW 11.5 mph - -   Scattered Clouds
3:50 AM 53.6 °F 51.8 °F 94% 29.68 in - SW 9.2 mph - N/A   Clear
4:20 AM 53.6 °F 51.8 °F 94% 29.68 in - SSW 8.1 mph - N/A   Clear
4:50 AM 53.6 °F 51.8 °F 94% 29.68 in - SSW 9.2 mph - N/A   Clear
5:20 AM 53.6 °F 50.0 °F 88% 29.68 in - SW 6.9 mph - N/A   Clear
5:50 AM 53.6 °F 48.2 °F 82% 29.65 in - SW 10.4 mph - N/A   Clear
6:20 AM 51.8 °F 48.2 °F 88% 29.68 in - SW 10.4 mph - N/A   Clear
6:50 AM 53 °F 48 °F 78% 29.68 in 19 mi SW 10.4 mph - -  
6:50 AM 51.8 °F 48.2 °F 88% 29.68 in 6.2 mi SW 10.4 mph - N/A   Partly Cloudy
7:20 AM 51.8 °F 48.2 °F 88% 29.68 in 6.2 mi SW 10.4 mph - N/A   Partly Cloudy
7:50 AM 51.8 °F 48.2 °F 88% 29.68 in 6.2 mi SW 8.1 mph - N/A   Partly Cloudy
8:20 AM 51.8 °F 48.2 °F 88% 29.68 in 6.2 mi SW 10.4 mph - N/A   Partly Cloudy
8:50 AM 51.8 °F 48.2 °F 88% 29.71 in 6.2 mi WSW 10.4 mph - N/A   Partly Cloudy
9:20 AM 53.6 °F 46.4 °F 77% 29.71 in 6.2 mi WSW 12.7 mph - N/A   Partly Cloudy
9:50 AM 54 °F 47 °F 70% 29.72 in 18 mi WSW 10.4 mph - -   Scattered Clouds
9:50 AM 55.4 °F 48.2 °F 77% 29.71 in 6.2 mi WSW 10.4 mph - N/A   Partly Cloudy
10:20 AM 57.2 °F 48.2 °F 72% 29.71 in 6.2 mi WSW 12.7 mph - N/A   Scattered Clouds
10:50 AM 51.8 °F 44.6 °F 76% 29.74 in 6.2 mi WNW 12.7 mph - N/A Rain Light Rain Showers
11:20 AM 53.6 °F 46.4 °F 77% 29.74 in 6.2 mi West 10.4 mph - N/A   Partly Cloudy
11:50 AM 55.4 °F 46.4 °F 72% 29.71 in 6.2 mi WSW 10.4 mph 21.9 mph N/A   Partly Cloudy
12:20 PM 59.0 °F 44.6 °F 59% 29.71 in 6.2 mi West 17.3 mph - N/A   Partly Cloudy
12:50 PM 56 °F 46 °F 60% 29.73 in 19 mi WSW 16.1 mph - -   Scattered Clouds
12:50 PM 57.2 °F 44.6 °F 63% 29.71 in 6.2 mi WSW 16.1 mph - N/A   Scattered Clouds
1:20 PM 57.2 °F 44.6 °F 63% 29.71 in 6.2 mi WSW 15.0 mph - N/A   Partly Cloudy
1:50 PM 57.2 °F 42.8 °F 59% 29.71 in 6.2 mi WSW 15.0 mph - N/A   Partly Cloudy
2:20 PM 57.2 °F 42.8 °F 59% 29.71 in 6.2 mi WSW 15.0 mph - N/A   Partly Cloudy
2:50 PM 57.2 °F 42.8 °F 59% 29.71 in 6.2 mi WSW 18.4 mph - N/A   Partly Cloudy
3:20 PM 59.0 °F 44.6 °F 59% 29.71 in 6.2 mi SW 12.7 mph - N/A   Partly Cloudy
3:50 PM 58 °F 44 °F 49% 29.70 in 25 mi SW 16.1 mph - -   Mostly Cloudy
3:50 PM 57.2 °F 42.8 °F 59% 29.68 in 6.2 mi SW 16.1 mph - N/A   Partly Cloudy
4:20 PM 57.2 °F 42.8 °F 59% 29.68 in 6.2 mi SW 16.1 mph - N/A   Partly Cloudy
4:50 PM 57.2 °F 46.4 °F 67% 29.68 in 6.2 mi SW 11.5 mph - N/A   Partly Cloudy
5:20 PM 57.2 °F 46.4 °F 67% 29.68 in 6.2 mi SW 12.7 mph - N/A   Partly Cloudy
5:50 PM 57.2 °F 46.4 °F 67% 29.68 in - SW 12.7 mph - N/A   Clear
6:20 PM 55.4 °F 46.4 °F 72% 29.68 in - SW 11.5 mph - N/A   Clear
6:50 PM 56 °F 47 °F 62% 29.69 in 19 mi SW 13.8 mph - -   Mostly Cloudy
6:50 PM 55.4 °F 46.4 °F 72% 29.68 in 6.2 mi SW 13.8 mph - N/A   Unknown
7:20 PM 55.4 °F 46.4 °F 72% 29.68 in 6.2 mi SW 13.8 mph - N/A   Scattered Clouds
7:50 PM 50.0 °F 46.4 °F 87% 29.71 in 5.0 mi West 6.9 mph - N/A   Scattered Clouds
8:20 PM 50.0 °F 46.4 °F 87% 29.71 in - WNW 5.8 mph - N/A   Clear
8:50 PM 50.0 °F 46.4 °F 87% 29.71 in - WSW 6.9 mph - N/A   Clear
9:20 PM 50.0 °F 46.4 °F 87% 29.71 in - SSW 8.1 mph - N/A   Clear
9:50 PM 50 °F 46 °F 80% 29.71 in 25 mi SW 6.9 mph - -   Mostly Cloudy
9:50 PM 50.0 °F 46.4 °F 87% 29.71 in - SW 8.1 mph - N/A   Clear
10:20 PM 50.0 °F 46.4 °F 87% 29.71 in - WSW 5.8 mph - N/A   Clear
10:50 PM 50.0 °F 44.6 °F 82% 29.68 in - SW 6.9 mph - N/A   Clear
11:20 PM 50.0 °F 46.4 °F 87% 29.68 in - SW 6.9 mph - N/A   Clear
11:50 PM 50.0 °F 46.4 °F 87% 29.68 in - WSW 5.8 mph - N/A   Clear